Weather History for Prairie Du Chien, WI

Change the Weather History Date:

Tuesday, May 28, 2013

  Actual Average Record
Temperature  
Mean Temperature 64 °F -  
Max Temperature 74 °F 75 °F 91 °F (1988)
Min Temperature 54 °F 53 °F 37 °F (1965)
Degree Days  
Heating Degree Days 2    
Growing Degree Days 14 (Base 50)    
Moisture  
Dew Point 59 °F    
Average Humidity 89    
Maximum Humidity 95    
Minimum Humidity 75    
Precipitation  
Precipitation 0.17 in - - ()
Sea Level Pressure  
Sea Level Pressure 29.74 in    
Wind  
Wind Speed 4 mph (ESE)    
Max Wind Speed 10 mph    
Max Gust Speed 20 mph    
Visibility 8 miles    
Events Rain    
Averages and records for this station are not official NWS values.
T = Trace of Precipitation, MM = Missing Value Source: NWS Daily Summary

Daily Weather History Graph

Daily Weather History Graph

Search for Another Location

Airport:

Trip Planner

Search our weather history database for the weather conditions in past years. The results will help you decide how hot, cold, wet, or windy it might be!

Date:

Astronomy

May. 28, 2013 Rise Set
Actual Time 5:30 AM CDT 8:33 PM CDT
Civil Twilight 4:56 AM CDT 9:08 PM CDT
Nautical Twilight 4:12 AM CDT 9:51 PM CDT
Astronomical Twilight 3:20 AM CDT 10:44 PM CDT
Moon 11:54 PM CDT (5/28) 9:21 AM CDT (5/28)
Length of Visible Light 16h 12m
Length of Day
15h 03m
Waning Gibbous, 82% of the Moon is Illuminated
May 28
Waning Gibbous
May 31
Last Quarter
Jun 8
New
Jun 16
First Quarter
Jun 23
Full

Hourly Weather History & Observations

Time (CDT) Temp. Dew Point Humidity Pressure Visibility Wind Dir Wind Speed Gust Speed Precip Events Conditions
12:15 AM 55.6 °F 53.2 °F 92% 29.83 in 7.0 mi East 6.9 mph - N/A   Overcast
12:35 AM 55.6 °F 53.2 °F 92% 29.83 in 7.0 mi East 5.8 mph - N/A   Overcast
12:55 AM 55.4 °F 53.1 °F 92% 29.81 in 7.0 mi East 6.9 mph - N/A   Overcast
1:15 AM 55.2 °F 52.9 °F 92% 29.81 in 5.0 mi East 4.6 mph - N/A   Overcast
1:35 AM 55.0 °F 53.1 °F 93% 29.79 in 5.0 mi East 3.5 mph - N/A   Overcast
1:55 AM 55.0 °F 53.1 °F 93% 29.79 in 5.0 mi East 3.5 mph - N/A   Overcast
2:15 AM 54.9 °F 52.9 °F 93% 29.78 in 4.0 mi East 8.1 mph - N/A   Overcast
2:35 AM 54.7 °F 53.1 °F 94% 29.78 in 3.0 mi East 6.9 mph - N/A   Overcast
2:55 AM 54.5 °F 52.9 °F 94% 29.78 in 2.5 mi East 4.6 mph - 0.02 in Rain Light Rain
3:15 AM 54.5 °F 53.1 °F 95% 29.76 in 2.5 mi East 6.9 mph - 0.01 in Rain Light Rain
3:35 AM 54.5 °F 53.1 °F 95% 29.75 in 3.0 mi East 4.6 mph - 0.01 in Rain Light Rain
3:55 AM 54.5 °F 53.1 °F 95% 29.75 in 3.0 mi East 6.9 mph - 0.02 in   Overcast
4:15 AM 54.7 °F 53.1 °F 94% 29.77 in 4.0 mi Calm Calm - N/A   Overcast
4:35 AM 54.7 °F 53.1 °F 94% 29.76 in 4.0 mi NE 4.6 mph - 0.01 in Rain Light Rain
4:55 AM 54.9 °F 53.1 °F 94% 29.74 in 5.0 mi East 4.6 mph - 0.02 in Rain Light Rain
5:15 AM 54.9 °F 53.1 °F 94% 29.74 in 5.0 mi ESE 4.6 mph - 0.02 in Rain Light Rain
5:35 AM 54.7 °F 53.1 °F 94% 29.73 in 5.0 mi ENE 6.9 mph - 0.03 in Rain Light Rain
5:55 AM 55.0 °F 53.1 °F 93% 29.73 in 7.0 mi Calm Calm - 0.07 in Rain Rain
6:15 AM 55.0 °F 53.2 °F 94% 29.75 in 7.0 mi ESE 5.8 mph - 0.03 in Rain Light Rain
6:35 AM 55.0 °F 53.2 °F 94% 29.73 in 7.0 mi Calm Calm - 0.04 in Rain Light Rain
6:55 AM 55.4 °F 53.6 °F 94% 29.73 in 10.0 mi Calm Calm - 0.04 in   Light Drizzle
7:15 AM 55.6 °F 53.6 °F 93% 29.73 in 10.0 mi East 3.5 mph - N/A   Overcast
7:35 AM 55.9 °F 54.0 °F 93% 29.73 in 10.0 mi East 5.8 mph - N/A   Overcast
7:55 AM 56.3 °F 54.1 °F 92% 29.73 in 10.0 mi East 5.8 mph - N/A   Overcast
8:15 AM 56.3 °F 54.3 °F 93% 29.73 in 10.0 mi ESE 5.8 mph - N/A   Overcast
8:35 AM 56.3 °F 54.3 °F 93% 29.72 in 10.0 mi Calm Calm - N/A   Overcast
8:55 AM 57.2 °F 54.5 °F 91% 29.73 in 10.0 mi Calm Calm - N/A   Overcast
9:15 AM 57.6 °F 54.9 °F 91% 29.73 in 10.0 mi East 4.6 mph - N/A   Overcast
9:35 AM 58.1 °F 55.2 °F 90% 29.73 in 10.0 mi Calm Calm - N/A   Overcast
9:55 AM 59.4 °F 56.3 °F 90% 29.72 in 10.0 mi East 5.8 mph - N/A   Overcast
10:15 AM 59.9 °F 56.7 °F 89% 29.71 in 10.0 mi ESE 6.9 mph - N/A   Overcast
10:35 AM 60.4 °F 57.2 °F 89% 29.72 in 10.0 mi SE 4.6 mph - N/A   Overcast
10:55 AM 60.8 °F 57.4 °F 88% 29.72 in 10.0 mi ESE 3.5 mph - N/A   Overcast
11:15 AM 61.3 °F 58.1 °F 89% 29.72 in 10.0 mi ESE 4.6 mph - N/A   Overcast
11:35 AM 62.2 °F 58.8 °F 89% 29.72 in 10.0 mi East 5.8 mph - N/A   Overcast
11:55 AM 63.1 °F 59.2 °F 87% 29.72 in 10.0 mi East 3.5 mph - N/A   Overcast
12:15 PM 63.9 °F 59.9 °F 87% 29.72 in 10.0 mi Calm Calm - N/A   Overcast
12:35 PM 65.1 °F 60.4 °F 85% 29.71 in 10.0 mi Calm Calm - N/A   Overcast
12:55 PM 66.4 °F 61.3 °F 84% 29.71 in 10.0 mi Calm Calm - N/A   Overcast
1:15 PM 66.9 °F 61.9 °F 84% 29.71 in 10.0 mi Calm Calm - N/A   Overcast
1:35 PM 68.5 °F 63.0 °F 82% 29.71 in 10.0 mi Calm Calm - N/A   Overcast
1:55 PM 69.4 °F 63.0 °F 80% 29.71 in 10.0 mi SE 3.5 mph - N/A   Overcast
2:15 PM 69.8 °F 63.0 °F 79% 29.71 in 10.0 mi South 3.5 mph - N/A   Overcast
2:35 PM 70.0 °F 63.7 °F 80% 29.71 in 10.0 mi South 3.5 mph - N/A   Overcast
2:55 PM 70.5 °F 64.0 °F 80% 29.71 in 7.0 mi SE 3.5 mph - N/A   Overcast
3:15 PM 72.0 °F 65.5 °F 80% 29.71 in 10.0 mi SSW 6.9 mph - N/A   Overcast
3:35 PM 71.2 °F 64.9 °F 80% 29.71 in 10.0 mi South 4.6 mph - N/A   Overcast
3:55 PM 71.6 °F 64.8 °F 79% 29.71 in 10.0 mi SW 4.6 mph - N/A   Overcast
4:15 PM 71.8 °F 65.3 °F 80% 29.71 in 10.0 mi SW 4.6 mph - N/A   Overcast
4:35 PM 72.9 °F 65.8 °F 79% 29.71 in 10.0 mi Calm Calm - N/A   Overcast
4:55 PM 72.3 °F 65.1 °F 78% 29.71 in 10.0 mi Calm Calm - N/A   Overcast
5:15 PM 73.9 °F 65.5 °F 75% 29.71 in 10.0 mi East 3.5 mph - N/A   Scattered Clouds
5:35 PM 73.6 °F 65.7 °F 76% 29.72 in 10.0 mi South 3.5 mph - N/A   Scattered Clouds
5:55 PM 72.9 °F 65.8 °F 79% 29.71 in 10.0 mi Calm Calm - N/A   Mostly Cloudy
6:15 PM 69.8 °F 63.5 °F 80% 29.72 in 10.0 mi NNW 10.4 mph 19.6 mph N/A   Mostly Cloudy
6:35 PM 69.1 °F 64.6 °F 86% 29.70 in 10.0 mi NW 8.1 mph - N/A   Mostly Cloudy
6:55 PM 69.8 °F 64.8 °F 84% 29.70 in 10.0 mi North 3.5 mph - N/A   Mostly Cloudy
7:15 PM 70.2 °F 64.0 °F 81% 29.69 in 10.0 mi Calm Calm - N/A   Clear
7:35 PM 69.1 °F 63.7 °F 83% 29.68 in 10.0 mi WNW 8.1 mph - N/A   Clear
7:55 PM 67.3 °F 63.0 °F 86% 29.68 in 10.0 mi Calm Calm - N/A   Clear
8:15 PM 67.1 °F 63.0 °F 87% 29.71 in 10.0 mi SSE 3.5 mph - N/A   Clear
8:35 PM 66.4 °F 62.8 °F 88% 29.74 in 10.0 mi Calm Calm - N/A   Clear
8:55 PM 65.8 °F 63.0 °F 90% 29.73 in 7.0 mi Calm Calm - N/A   Clear
9:15 PM 65.7 °F 63.1 °F 92% 29.73 in 7.0 mi Calm Calm - N/A   Clear
9:35 PM 64.9 °F 63.0 °F 93% 29.74 in 5.0 mi Calm Calm - N/A   Clear
9:55 PM 64.4 °F 62.4 °F 93% 29.75 in 5.0 mi Calm Calm - N/A   Clear
10:15 PM 64.0 °F 62.1 °F 93% 29.77 in 5.0 mi Calm Calm - N/A   Clear
10:35 PM 63.7 °F 61.7 °F 93% 29.78 in 5.0 mi Calm Calm - N/A   Scattered Clouds
10:55 PM 63.0 °F 61.3 °F 94% 29.77 in 4.0 mi Calm Calm - N/A   Overcast
11:15 PM 63.9 °F 62.1 °F 94% 29.77 in 5.0 mi Calm Calm - N/A   Mostly Cloudy
11:35 PM 63.3 °F 61.5 °F 94% 29.77 in 5.0 mi Calm Calm - N/A   Mostly Cloudy
11:55 PM 63.0 °F 61.3 °F 94% 29.78 in 4.0 mi Calm Calm - N/A   Overcast